Hourly Weather Mostar

Today, 22 September, Tuesday

Time Temperature Precipitation Wind Pressure Humidity
00:00 +21°C° 0.2 mm 1 mps 755 mmHg 79%
01:00 +20°C° 0 mm 2 mps 755 mmHg 79%
02:00 +20°C° 0.4 mm 2 mps 755 mmHg 80%
03:00 +19°C° 0.4 mm 2 mps 755 mmHg 81%
04:00 +19°C° 0.4 mm 2 mps 754 mmHg 81%
05:00 +20°C° 0.5 mm 2 mps 754 mmHg 81%
06:00 +20°C° 0.5 mm 2 mps 754 mmHg 80%
07:00 +21°C° 0 mm 1 mps 755 mmHg 77%
08:00 +23°C° 0.8 mm 2 mps 755 mmHg 72%
09:00 +24°C° 0.8 mm 2 mps 755 mmHg 68%
10:00 +25°C° 0.8 mm 2 mps 755 mmHg 64%
11:00 +26°C° 1.1 mm 3 mps 754 mmHg 64%
12:00 +26°C° 1.1 mm 4 mps 754 mmHg 64%
13:00 +27°C° 1.1 mm 5 mps 754 mmHg 64%
14:00 +26°C° 1.4 mm 4 mps 754 mmHg 66%
15:00 +26°C° 1.4 mm 4 mps 753 mmHg 69%
16:00 +26°C° 1.4 mm 4 mps 753 mmHg 71%
17:00 +24°C° 0.7 mm 3 mps 753 mmHg 75%
18:00 +22°C° 0.7 mm 3 mps 753 mmHg 79%
19:00 +21°C° 0.7 mm 3 mps 753 mmHg 83%
20:00 +21°C° 0.7 mm 3 mps 753 mmHg 83%
21:00 +21°C° 0.7 mm 3 mps 753 mmHg 83%
22:00 +20°C° 0.7 mm 3 mps 753 mmHg 84%
23:00 +20°C° 1.5 mm 3 mps 753 mmHg 85%

Tomorrow, 23 September, Wednesday

Time Temperature Precipitation Wind Pressure Humidity
00:00 +20°C° 1.5 mm 2 mps 753 mmHg 86%
01:00 +20°C° 1.5 mm 2 mps 753 mmHg 87%
02:00 +19°C° 0.9 mm 2 mps 753 mmHg 88%
03:00 +19°C° 0.9 mm 2 mps 752 mmHg 88%
04:00 +19°C° 0.9 mm 2 mps 752 mmHg 88%
05:00 +19°C° 0.8 mm 2 mps 752 mmHg 88%
06:00 +20°C° 0.8 mm 2 mps 752 mmHg 88%
07:00 +20°C° 0.8 mm 2 mps 752 mmHg 88%
08:00 +21°C° 0.9 mm 2 mps 752 mmHg 85%
09:00 +22°C° 0.9 mm 3 mps 752 mmHg 82%
10:00 +24°C° 0.9 mm 3 mps 753 mmHg 79%
11:00 +25°C° 1.2 mm 3 mps 752 mmHg 78%
12:00 +25°C° 1.2 mm 3 mps 752 mmHg 76%
13:00 +26°C° 1.2 mm 3 mps 752 mmHg 75%
14:00 +25°C° 1.2 mm 3 mps 752 mmHg 75%
15:00 +25°C° 1.2 mm 2 mps 751 mmHg 76%
16:00 +25°C° 1.2 mm 2 mps 751 mmHg 77%
17:00 +23°C° 0.3 mm 2 mps 751 mmHg 80%
18:00 +22°C° 0.3 mm 1 mps 752 mmHg 84%
19:00 +21°C° 0.3 mm 1 mps 752 mmHg 87%
20:00 +21°C° 0.2 mm 1 mps 752 mmHg 87%
21:00 +20°C° 0.2 mm 1 mps 752 mmHg 87%
22:00 +19°C° 0.2 mm 2 mps 752 mmHg 87%
23:00 +19°C° 0.6 mm 2 mps 752 mmHg 87%

Day after tomorrow, 24 September, Thursday

Time Temperature Precipitation Wind Pressure Humidity
00:00 +19°C° 0.6 mm 2 mps 752 mmHg 87%
01:00 +19°C° 0.6 mm 2 mps 752 mmHg 88%
02:00 +19°C° 0.9 mm 2 mps 752 mmHg 88%
03:00 +19°C° 0.9 mm 2 mps 752 mmHg 88%
04:00 +19°C° 0.9 mm 1 mps 752 mmHg 88%
05:00 +20°C° 0.4 mm 1 mps 752 mmHg 86%
06:00 +21°C° 0.4 mm 1 mps 752 mmHg 85%
07:00 +21°C° 0.4 mm 1 mps 752 mmHg 83%
08:00 +23°C° 0.1 mm 1 mps 752 mmHg 77%
09:00 +24°C° 0.1 mm 1 mps 752 mmHg 72%
10:00 +26°C° 0.1 mm 1 mps 752 mmHg 66%
11:00 +26°C° 0.1 mm 1 mps 752 mmHg 62%
12:00 +27°C° 0.1 mm 1 mps 752 mmHg 59%
13:00 +28°C° 0.1 mm 2 mps 752 mmHg 55%
14:00 +27°C° 0.1 mm 2 mps 752 mmHg 59%
15:00 +26°C° 0.1 mm 2 mps 752 mmHg 62%
16:00 +26°C° 0.1 mm 2 mps 752 mmHg 66%
17:00 +24°C° 0 mm 1 mps 752 mmHg 73%
18:00 +23°C° 0 mm 1 mps 752 mmHg 80%
19:00 +19°C° 0 mm 0 mps 752 mmHg 86%
20:00 +21°C° 0 mm 1 mps 752 mmHg 87%
21:00 +21°C° 0 mm 1 mps 752 mmHg 88%
22:00 +20°C° 0 mm 1 mps 752 mmHg 88%
23:00 +20°C° 0 mm 1 mps 752 mmHg 89%

25 September, Friday

Time Temperature Precipitation Wind Pressure Humidity
00:00 +19°C° 0 mm 2 mps 752 mmHg 90%
01:00 +19°C° 0 mm 2 mps 751 mmHg 91%
02:00 +19°C° 0 mm 2 mps 751 mmHg 91%
03:00 +19°C° 0 mm 3 mps 750 mmHg 90%
04:00 +19°C° 0 mm 3 mps 749 mmHg 90%
05:00 +19°C° 0.2 mm 3 mps 749 mmHg 88%
06:00 +20°C° 0.2 mm 3 mps 749 mmHg 86%
07:00 +20°C° 0.2 mm 4 mps 748 mmHg 83%
08:00 +21°C° 0.7 mm 5 mps 748 mmHg 81%
09:00 +22°C° 0.7 mm 5 mps 747 mmHg 78%
10:00 +23°C° 0.7 mm 6 mps 747 mmHg 75%
11:00 +23°C° 1.1 mm 6 mps 746 mmHg 78%
12:00 +22°C° 1.1 mm 6 mps 746 mmHg 80%
13:00 +22°C° 1.1 mm 6 mps 745 mmHg 82%
14:00 +21°C° 2.8 mm 6 mps 745 mmHg 86%
15:00 +21°C° 2.8 mm 7 mps 744 mmHg 90%
16:00 +21°C° 2.8 mm 7 mps 744 mmHg 94%
17:00 +21°C° 3.7 mm 8 mps 743 mmHg 93%
18:00 +21°C° 3.7 mm 8 mps 742 mmHg 93%
19:00 +21°C° 3.7 mm 9 mps 742 mmHg 92%
20:00 +21°C° 2.8 mm 9 mps 741 mmHg 92%
21:00 +21°C° 2.8 mm 9 mps 741 mmHg 91%
22:00 +21°C° 2.8 mm 8 mps 740 mmHg 91%
23:00 +20°C° 1.6 mm 7 mps 740 mmHg 90%

26 September, Saturday

Time Temperature Precipitation Wind Pressure Humidity
00:00 +17°C° 1.6 mm 5 mps 740 mmHg 90%
01:00 +17°C° 1.6 mm 4 mps 739 mmHg 89%
02:00 +17°C° 0.2 mm 3 mps 739 mmHg 88%
03:00 +16°C° 0.2 mm 2 mps 739 mmHg 88%
04:00 +16°C° 0.2 mm 1 mps 739 mmHg 87%
05:00 +16°C° 0.9 mm 2 mps 739 mmHg 86%
06:00 +16°C° 0.9 mm 3 mps 739 mmHg 85%
07:00 +16°C° 0.9 mm 3 mps 739 mmHg 84%
08:00 +15°C° 1.1 mm 4 mps 739 mmHg 82%
09:00 +17°C° 1.1 mm 4 mps 739 mmHg 80%
10:00 +17°C° 1.1 mm 4 mps 738 mmHg 78%
11:00 +17°C° 1.2 mm 4 mps 739 mmHg 77%
12:00 +17°C° 1.2 mm 3 mps 739 mmHg 77%
13:00 +17°C° 1.2 mm 3 mps 739 mmHg 76%
14:00 +17°C° 1.2 mm 3 mps 739 mmHg 76%
15:00 +17°C° 1.2 mm 3 mps 739 mmHg 76%
16:00 +17°C° 1.2 mm 2 mps 739 mmHg 76%
17:00 +16°C° 0.4 mm 2 mps 740 mmHg 78%
18:00 +14°C° 0.4 mm 3 mps 740 mmHg 80%
19:00 +13°C° 0.4 mm 3 mps 741 mmHg 83%
20:00 +13°C° 0.4 mm 3 mps 742 mmHg 83%
21:00 +14°C° 0.4 mm 2 mps 742 mmHg 84%
22:00 +13°C° 0.4 mm 2 mps 743 mmHg 85%
23:00 +13°C° 0.2 mm 2 mps 743 mmHg 85%

27 September, Sunday

Time Temperature Precipitation Wind Pressure Humidity
00:00 +12°C° 0.2 mm 2 mps 743 mmHg 85%
01:00 +12°C° 0.2 mm 2 mps 743 mmHg 85%
02:00 +11°C° 1 mm 3 mps 744 mmHg 86%
03:00 +11°C° 1 mm 4 mps 744 mmHg 88%
04:00 +11°C° 1 mm 4 mps 744 mmHg 89%
05:00 +10°C° 2.2 mm 5 mps 744 mmHg 89%
06:00 +10°C° 2.2 mm 5 mps 744 mmHg 88%
07:00 +10°C° 2.2 mm 5 mps 744 mmHg 88%
08:00 +10°C° 1.4 mm 6 mps 745 mmHg 87%
09:00 +10°C° 1.3 mm 6 mps 745 mmHg 85%
10:00 +10°C° 1.4 mm 6 mps 745 mmHg 84%
11:00 +10°C° 3.4 mm 5 mps 745 mmHg 85%
12:00 +12°C° 3.4 mm 4 mps 745 mmHg 86%
13:00 +12°C° 3.4 mm 3 mps 746 mmHg 86%
14:00 +12°C° 1.2 mm 3 mps 746 mmHg 86%
15:00 +12°C° 1.2 mm 3 mps 747 mmHg 85%
16:00 +13°C° 1.2 mm 2 mps 747 mmHg 84%
17:00 +12°C° 0.1 mm 2 mps 748 mmHg 85%
18:00 +10°C° 0.1 mm 2 mps 748 mmHg 86%
19:00 +9°C° 0.1 mm 2 mps 749 mmHg 87%
20:00 +9°C° 0.1 mm 2 mps 749 mmHg 86%
21:00 +9°C° 0.1 mm 2 mps 750 mmHg 85%
22:00 +9°C° 0.1 mm 2 mps 750 mmHg 83%
23:00 +9°C° 0.1 mm 2 mps 750 mmHg 83%
Show more